Location: Freemans Gardens
(41.6414°N, 83.6077°W)
Time: 03:21:52
(UTC+00:00)

Cosmos 968 Rocket - Pass Details

Date: 29 October 2020
Orbit: 741 x 770 km, 74.0° (Epoch: 26 November)

Event Time Altitude Azimuth Distance (km) Brightness Sun altitude
Rises 23:17:25 0° 345° (NNW) 3,235 6.8 -9.0°
Reaches altitude 10° 23:19:54 10° 351° (N) 2,300 6.0 -9.5°
Maximum altitude 23:24:55 47° 66° (ENE) 992 3.7 -10.4°
Drops below altitude 10° 23:29:53 10° 140° (SE) 2,267 5.6 -11.3°
Sets 23:32:18 0° 146° (SE) 3,182 6.4 -11.8°
